Total_Precipitation_Accumulation
0.01 0.01 0.02 0.04 0.05 0.05 0.04 0.03 0.02 0.02 0.05 0.07 0.06 0.06 0.10 0.12 0.05 0.01 0.01 0.00 0.00 0.00 0.00 0.00 0.00 0.00 0.00 0.00 0.00 0.00 0.02 0.02 0.02 0.06 0.04 0.00 0.00 0.00 0.00 0.00 0.00 0.01 0.02 0.03 0.03 0.05 0.00 0.00 0.00 0.00 0.00 0.00 0.00 0.00
0.06 0.07 0.09 0.09 0.06 0.04 0.02 0.03 0.04 0.05 0.09 0.10 0.05 0.07 0.11 0.15 0.11 0.06 0.02 0.04 0.01 0.01 0.00 0.00 0.00 0.00 0.00 0.00 0.00 0.00 0.01 0.00 0.02 0.04 0.04 0.02 0.01 0.00 0.00 0.00 0.00 0.00 0.00 0.00 0.00 0.00 0.00 0.00 0.00 0.00 0.00 0.00 0.00 0.00
0.05 0.07 0.09 0.06 0.03 0.02 0.03 0.05 0.08 0.13 0.15 0.06 0.08 0.08 0.10 0.13 0.12 0.18 0.13 0.04 0.03 0.11 0.02 0.02 0.01 0.00 0.00 0.00 0.00 0.01 0.03 0.02 0.04 0.02 0.02 0.03 0.03 0.01 0.00 0.00 0.00 0.00 0.00 0.00 0.00 0.00 0.00 0.00 0.00 0.00 0.00 0.00 0.00 0.00
0.02 0.05 0.05 0.03 0.03 0.03 0.05 0.11 0.19 0.19 0.10 0.11 0.12 0.06 0.07 0.07 0.11 0.16 0.05 0.02 0.07 0.11 0.09 0.01 0.00 0.00 0.00 0.01 0.01 0.01 0.05 0.05 0.11 0.17 0.10 0.05 0.04 0.01 0.01 0.00 0.00 0.00 0.00 0.00 0.00 0.00 0.00 0.00 0.00 0.00 0.00 0.00 0.00 0.00
0.02 0.03 0.04 0.06 0.08 0.11 0.17 0.20 0.15 0.10 0.10 0.15 0.13 0.04 0.09 0.13 0.10 0.03 0.01 0.02 0.06 0.15 0.11 0.02 0.00 0.00 0.00 0.04 0.03 0.04 0.05 0.13 0.09 0.26 0.34 0.16 0.06 0.05 0.02 0.00 0.00 0.00 0.00 0.00 0.00 0.00 0.00 0.00 0.00 0.00 0.00 0.00 0.00 0.00
0.07 0.07 0.08 0.09 0.14 0.20 0.18 0.16 0.14 0.12 0.16 0.18 0.08 0.10 0.11 0.04 0.03 0.01 0.01 0.00 0.00 0.04 0.21 0.06 0.00 0.00 0.01 0.08 0.08 0.09 0.10 0.22 0.33 0.20 0.35 0.24 0.10 0.16 0.12 0.03 0.00 0.00 0.00 0.00 0.00 0.00 0.00 0.00 0.00 0.00 0.00 0.00 0.00 0.00
0.09 0.09 0.09 0.12 0.15 0.13 0.15 0.13 0.11 0.15 0.15 0.08 0.10 0.08 0.02 0.01 0.01 0.01 0.01 0.01 0.01 0.02 0.10 0.10 0.12 0.12 0.06 0.21 0.25 0.26 0.22 0.36 0.63 0.35 0.17 0.25 0.21 0.30 0.22 0.04 0.00 0.00 0.00 0.00 0.01 0.00 0.00 0.00 0.00 0.00 0.00 0.00 0.00 0.00
0.06 0.06 0.07 0.10 0.14 0.13 0.11 0.09 0.10 0.10 0.08 0.05 0.05 0.01 0.00 0.01 0.01 0.01 0.00 0.01 0.02 0.12 0.23 0.26 0.40 0.69 0.23 0.49 0.43 0.38 0.33 0.38 0.84 0.51 0.14 0.08 0.27 0.27 0.15 0.02 0.04 0.02 0.03 0.02 0.01 0.01 0.01 0.00 0.00 0.00 0.00 0.00 0.00 0.00
0.09 0.08 0.06 0.08 0.10 0.07 0.06 0.06 0.09 0.11 0.04 0.01 0.00 0.00 0.01 0.00 0.00 0.01 0.03 0.06 0.09 0.16 0.21 0.36 0.59 0.61 0.58 0.58 0.44 0.52 0.35 0.38 0.57 0.42 0.15 0.18 0.20 0.25 0.05 0.06 0.10 0.13 0.15 0.16 0.13 0.04 0.02 0.02 0.00 0.00 0.00 0.00 0.00 0.00
0.13 0.07 0.04 0.04 0.05 0.04 0.03 0.05 0.06 0.04 0.01 0.00 0.00 0.00 0.00 0.00 0.00 0.02 0.09 0.13 0.23 0.22 0.23 0.36 0.44 0.41 0.84 0.64 0.56 0.57 0.31 0.41 0.57 0.26 0.20 0.25 0.17 0.02 0.03 0.06 0.06 0.14 0.24 0.28 0.27 0.10 0.03 0.02 0.00 0.00 0.00 0.00 0.00 0.00
0.08 0.05 0.03 0.04 0.06 0.05 0.04 0.03 0.02 0.00 0.00 0.00 0.00 0.00 0.00 0.00 0.00 0.04 0.09 0.12 0.13 0.17 0.24 0.26 0.39 0.36 0.46 0.53 0.33 0.36 0.43 0.41 0.69 0.44 0.25 0.22 0.22 0.09 0.05 0.02 0.01 0.07 0.15 0.10 0.13 0.05 0.01 0.00 0.00 0.00 0.00 0.00 0.00 0.00
0.10 0.07 0.06 0.08 0.09 0.06 0.03 0.02 0.01 0.00 0.00 0.00 0.01 0.00 0.01 0.01 0.03 0.09 0.08 0.08 0.13 0.18 0.20 0.26 0.27 0.33 0.43 0.30 0.46 0.37 0.32 0.28 0.29 0.23 0.29 0.29 0.23 0.17 0.19 0.07 0.03 0.02 0.04 0.05 0.01 0.01 0.00 0.00 0.00 0.00 0.00 0.00 0.00 0.00
0.09 0.07 0.09 0.07 0.04 0.04 0.02 0.00 0.01 0.00 0.00 0.00 0.01 0.01 0.01 0.01 0.04 0.07 0.05 0.06 0.06 0.06 0.07 0.11 0.26 0.22 0.39 0.36 0.40 0.43 0.22 0.09 0.13 0.17 0.19 0.14 0.05 0.02 0.09 0.17 0.16 0.11 0.06 0.20 0.23 0.10 0.03 0.03 0.05 0.08 0.08 0.06 0.05 0.04
0.04 0.06 0.05 0.04 0.02 0.01 0.01 0.00 0.00 0.00 0.00 0.00 0.00 0.00 0.00 0.01 0.05 0.03 0.04 0.04 0.01 0.00 0.01 0.03 0.11 0.20 0.27 0.23 0.23 0.24 0.11 0.11 0.21 0.24 0.20 0.07 0.05 0.04 0.02 0.04 0.07 0.08 0.07 0.15 0.36 0.37 0.26 0.30 0.30 0.23 0.17 0.12 0.07 0.03
0.02 0.04 0.05 0.03 0.03 0.01 0.01 0.01 0.00 0.00 0.00 0.00 0.00 0.00 0.00 0.00 0.00 0.00 0.00 0.00 0.00 0.00 0.01 0.02 0.07 0.13 0.17 0.23 0.21 0.20 0.21 0.34 0.28 0.26 0.17 0.10 0.09 0.08 0.05 0.03 0.02 0.05 0.07 0.08 0.11 0.19 0.18 0.08 0.05 0.03 0.07 0.11 0.09 0.06
0.04 0.09 0.07 0.02 0.01 0.00 0.00 0.00 0.00 0.00 0.00 0.00 0.00 0.00 0.00 0.00 0.00 0.00 0.00 0.00 0.00 0.00 0.02 0.05 0.06 0.13 0.16 0.25 0.20 0.27 0.47 0.40 0.23 0.15 0.10 0.05 0.09 0.07 0.05 0.03 0.01 0.00 0.01 0.02 0.03 0.05 0.04 0.01 0.00 0.01 0.04 0.11 0.14 0.13
0.10 0.04 0.02 0.02 0.03 0.01 0.00 0.00 0.00 0.00 0.00 0.00 0.00 0.00 0.00 0.00 0.00 0.00 0.00 0.00 0.00 0.01 0.06 0.12 0.15 0.08 0.10 0.13 0.13 0.21 0.31 0.19 0.09 0.06 0.02 0.01 0.01 0.01 0.01 0.00 0.00 0.00 0.01 0.03 0.08 0.08 0.09 0.07 0.02 0.00 0.00 0.01 0.04 0.11
0.01 0.01 0.03 0.04 0.03 0.02 0.01 0.00 0.00 0.00 0.00 0.00 0.00 0.00 0.00 0.00 0.00 0.00 0.00 0.00 0.00 0.03 0.06 0.15 0.11 0.06 0.03 0.03 0.03 0.07 0.10 0.06 0.06 0.03 0.02 0.01 0.00 0.00 0.01 0.02 0.00 0.03 0.12 0.17 0.15 0.13 0.12 0.10 0.07 0.03 0.00 0.00 0.00 0.00
0.00 0.01 0.08 0.06 0.05 0.02 0.00 0.00 0.00 0.00 0.00 0.00 0.00 0.00 0.00 0.00 0.00 0.00 0.00 0.00 0.00 0.01 0.04 0.06 0.04 0.02 0.00 0.00 0.00 0.00 0.00 0.01 0.01 0.01 0.01 0.00 0.00 0.00 0.01 0.04 0.06 0.07 0.18 0.11 0.02 0.00 0.01 0.02 0.03 0.02 0.00 0.00 0.00 0.00
0.02 0.05 0.08 0.08 0.05 0.00 0.00 0.00 0.00 0.00 0.00 0.00 0.00 0.00 0.00 0.00 0.00 0.00 0.00 0.00 0.01 0.02 0.02 0.02 0.00 0.00 0.00 0.00 0.00 0.00 0.00 0.00 0.00 0.00 0.00 0.00 0.00 0.00 0.00 0.02 0.05 0.07 0.07 0.05 0.04 0.02 0.00 0.00 0.00 0.00 0.00 0.00 0.00 0.00
0.07 0.21 0.24 0.10 0.07 0.02 0.00 0.00 0.00 0.00 0.00 0.00 0.00 0.00 0.00 0.00 0.00 0.00 0.00 0.01 0.03 0.02 0.00 0.00 0.00 0.00 0.00 0.00 0.00 0.00 0.00 0.00 0.00 0.00 0.00 0.00 0.00 0.00 0.00 0.00 0.00 0.01 0.02 0.02 0.02 0.01 0.00 0.00 0.00 0.00 0.00 0.00 0.00 0.00
0.02 0.09 0.06 0.11 0.13 0.07 0.03 0.01 0.00 0.00 0.00 0.00 0.00 0.00 0.00 0.00 0.00 0.00 0.01 0.01 0.01 0.00 0.00 0.00 0.00 0.00 0.00 0.00 0.00 0.00 0.00 0.00 0.00 0.00 0.00 0.00 0.00 0.00 0.00 0.00 0.00 0.00 0.00 0.00 0.01 0.00 0.00 0.00 0.00 0.00 0.00 0.00 0.00 0.00
0.03 0.08 0.13 0.15 0.11 0.07 0.03 0.01 0.01 0.00 0.00 0.00 0.00 0.00 0.00 0.00 0.00 0.01 0.01 0.00 0.00 0.00 0.00 0.00 0.00 0.00 0.00 0.00 0.00 0.00 0.00 0.00 0.00 0.00 0.00 0.00 0.00 0.00 0.00 0.00 0.00 0.00 0.00 0.00 0.00 0.00 0.00 0.00 0.00 0.00 0.00 0.00 0.00 0.00
0.02 0.08 0.13 0.12 0.09 0.04 0.03 0.02 0.02 0.01 0.01 0.00 0.00 0.00 0.00 0.00 0.01 0.01 0.00 0.00 0.00 0.00 0.00 0.00 0.00 0.00 0.00 0.00 0.00 0.00 0.00 0.00 0.00 0.00 0.00 0.00 0.00 0.00 0.00 0.00 0.00 0.00 0.00 0.00 0.00 0.00 0.00 0.00 0.00 0.00 0.00 0.00 0.00 0.00
0.15 0.12 0.13 0.16 0.08 0.05 0.03 0.02 0.02 0.01 0.00 0.00 0.00 0.00 0.00 0.00 0.00 0.00 0.00 0.00 0.00 0.00 0.00 0.00 0.00 0.00 0.00 0.00 0.00 0.00 0.00 0.00 0.00 0.00 0.00 0.00 0.00 0.00 0.00 0.00 0.00 0.00 0.00 0.00 0.00 0.00 0.00 0.00 0.00 0.00 0.00 0.00 0.00 0.00
0.20 0.09 0.06 0.02 0.02 0.01 0.00 0.00 0.01 0.00 0.00 0.00 0.00 0.00 0.00 0.00 0.00 0.00 0.00 0.00 0.00 0.00 0.00 0.00 0.00 0.00 0.00 0.00 0.00 0.00 0.00 0.00 0.00 0.00 0.00 0.00 0.00 0.00 0.00 0.00 0.00 0.00 0.00 0.00 0.00 0.00 0.00 0.00 0.00 0.00 0.00 0.00 0.00 0.01
0.11 0.07 0.04 0.01 0.00 0.01 0.00 0.00 0.00 0.00 0.00 0.00 0.00 0.00 0.01 0.02 0.00 0.00 0.00 0.00 0.00 0.00 0.00 0.00 0.00 0.00 0.00 0.00 0.00 0.00 0.00 0.00 0.00 0.00 0.00 0.00 0.00 0.00 0.00 0.00 0.00 0.00 0.00 0.00 0.00 0.00 0.00 0.00 0.00 0.00 0.00 0.00 0.00 0.01
0.03 0.00 0.01 0.02 0.00 0.00 0.00 0.01 0.02 0.02 0.01 0.02 0.04 0.02 0.02 0.00 0.00 0.00 0.00 0.00 0.00 0.00 0.00 0.00 0.00 0.00 0.00 0.00 0.00 0.00 0.00 0.00 0.00 0.00 0.00 0.00 0.00 0.00 0.00 0.00 0.00 0.00 0.00 0.00 0.00 0.00 0.00 0.00 0.00 0.00 0.00 0.00 0.00 0.00
0.02 0.00 0.00 0.01 0.00 0.00 0.00 0.00 0.00 0.00 0.00 0.00 0.02 0.00 0.00 0.00 0.00 0.00 0.00 0.00 0.00 0.00 0.00 0.00 0.00 0.00 0.00 0.00 0.00 0.00 0.00 0.00 0.00 0.00 0.00 0.00 0.00 0.00 0.00 0.00 0.00 0.00 0.00 0.00 0.00 0.00 0.01 0.02 0.02 0.03 0.02 0.01 0.01 0.01
0.01 0.00 0.00 0.00 0.00 0.00 0.00 0.00 0.00 0.00 0.00 0.00 0.00 0.00 0.00 0.00 0.00 0.00 0.00 0.00 0.00 0.00 0.00 0.00 0.00 0.00 0.00 0.00 0.00 0.00 0.00 0.00 0.00 0.00 0.00 0.00 0.00 0.00 0.00 0.00 0.00 0.00 0.00 0.00 0.00 0.00 0.00 0.00 0.01 0.03 0.06 0.06 0.03 0.03
0.00 0.00 0.00 0.00 0.00 0.00 0.00 0.00 0.00 0.00 0.00 0.00 0.00 0.00 0.00 0.00 0.00 0.00 0.00 0.00 0.00 0.00 0.00 0.00 0.00 0.00 0.00 0.00 0.00 0.00 0.00 0.00 0.00 0.00 0.00 0.00 0.00 0.00 0.00 0.00 0.00 0.00 0.00 0.01 0.01 0.00 0.00 0.01 0.02 0.02 0.02 0.02 0.01 0.03
0.00 0.00 0.00 0.00 0.00 0.00 0.00 0.00 0.00 0.00 0.00 0.00 0.00 0.00 0.00 0.00 0.00 0.00 0.00 0.00 0.00 0.00 0.00 0.00 0.00 0.00 0.00 0.00 0.00 0.00 0.00 0.00 0.00 0.00 0.00 0.00 0.00 0.00 0.00 0.00 0.00 0.01 0.01 0.02 0.02 0.02 0.03 0.03 0.02 0.02 0.02 0.03 0.04 0.03
0.05 0.04 0.03 0.03 0.02 0.00 0.00 0.01 0.02 0.01 0.00 0.00 0.00 0.00 0.00 0.00 0.00 0.00 0.00 0.00 0.00 0.00 0.00 0.00 0.00 0.00 0.00 0.00 0.00 0.00 0.00 0.00 0.00 0.00 0.01 0.01 0.01 0.02 0.04 0.03 0.03 0.03 0.03 0.03 0.02 0.03 0.03 0.03 0.03 0.04 0.04 0.04 0.04 0.05